Printer-friendly version

IAU Minor Planet Center

Minor Planet Center

MPEC 2007-T89 : 2007 TX24

The following Minor Planet Electronic Circular may be linked-to from your own Web pages, but must not otherwise be redistributed electronically.


Read MPEC 2007-T88 Read MPEC 2007-T90


M.P.E.C. 2007-T89                                Issued 2007 Oct. 12, 15:50 UT

     The Minor Planet Electronic Circulars contain information on unusual
         minor planets and routine data on comets.  They are published
   on behalf of Commission 20 of the International Astronomical Union by the
          Minor Planet Center, Smithsonian Astrophysical Observatory,
                          Cambridge, MA 02138, U.S.A.

             Prepared using the Tamkin Foundation Computer Network

                              MPC@CFA.HARVARD.EDU
          URL http://www.cfa.harvard.edu/iau/mpc.html  ISSN 1523-6714

                                   2007 TX24

Observations:
     K07T24X* C2007 10 11.33492 01 19 28.77 +13 10 19.1          20.2 V ET089G96
     K07T24X  C2007 10 11.34207 01 19 33.20 +13 09 48.1          20.3 V ET089G96
     K07T24X  C2007 10 11.34923 01 19 37.66 +13 09 17.1          20.3 V ET089G96
     K07T24X  C2007 10 11.35639 01 19 42.09 +13 08 46.1          20.3 V ET089G96
     K07T24X  C2007 10 11.37062 01 19 50.95 +13 07 44.2          20.4 V ET089G96
     K07T24X  C2007 10 11.37118 01 19 51.31 +13 07 42.0          20.2 V ET089G96
     K07T24X  C2007 10 11.37170 01 19 51.63 +13 07 39.5          20.3 V ET089G96
     K07T24X  C2007 10 11.37225 01 19 51.96 +13 07 37.4          20.2 V ET089G96
     K07T24X  C2007 10 11.38543 01 19 59.07 +13 06 25.5          19.8 R ET089649
     K07T24X  C2007 10 11.38686 01 19 59.92 +13 06 20.7          19.8 R ET089649
     K07T24X  C2007 10 11.38819 01 20 01.84 +13 06 29.9          20.4 R ET089651
     K07T24X  C2007 10 11.38828 01 20 00.86 +13 06 13.5          19.8 R ET089649
     K07T24X  C2007 10 11.38971 01 20 01.79 +13 06 07.4          20.4 R ET089649
     K07T24X  C2007 10 11.39164 01 20 04.09 +13 06 14.4          20.5 R ET089651
     K07T24X  C2007 10 11.42612 01 20 25.62 +13 03 41.9          20.5 V ET089G96
     K07T24X  C2007 10 11.42794 01 20 26.77 +13 03 34.1          19.5 V ET089G96
     K07T24X  C2007 10 11.42971 01 20 27.88 +13 03 26.9          19.4 V ET089G96
     K07T24X  C2007 10 11.43155 01 20 29.00 +13 03 18.2          19.3 V ET089G96
     K07T24X  C2007 10 12.35458 01 30 25.52 +11 57 34.5          20.0 V ET089G96
     K07T24X  C2007 10 12.35512 01 30 25.81 +11 57 32.2          19.5 V ET089G96
     K07T24X  C2007 10 12.35565 01 30 26.13 +11 57 30.0          20.4 V ET089G96
     K07T24X  C2007 10 12.35618 01 30 26.46 +11 57 27.7          19.9 V ET089G96

Observer details:
649 Powell Observatory, Louisburg.  Observers R. Trentman, R. Fredrick.
    0.75-m Newtonian reflector + CCD.
651 Grasslands Observatory, Tucson.  Observer J. E. McGaha.  0.62-m f/5.1
    reflector + CCD.
G96 Mt. Lemmon Survey.  Observer R. E. Hill.  Measurers E. C. Beshore,
    A. Boattini, G. J. Garradd, A. R. Gibbs, A. D. Grauer, R. E. Hill,
    R. A. Kowalski, S. M. Larson, R. H. McNaught.  1.5-m reflector + CCD.

Orbital elements:
2007 TX24                                                Earth MOID = 0.0775 AU
Epoch 2007 Oct. 27.0 TT = JDT 2454400.5                 MPC
M   6.84493              (2000.0)            P               Q
n   0.28710312     Peri.  168.70905     +0.98699822     -0.15317401
a   2.2756778      Node   200.29730     +0.13436009     +0.95258056
e   0.5280442      Incl.    8.07134     +0.08821497     +0.26292204
P   3.43           H   24.9           G   0.15           U   8
Residuals in seconds of arc
071011 G96  0.1-  0.0     071011 649  0.1+  0.7-    071011 G96  0.1+  0.5+
071011 G96  0.2-  0.1-    071011 649  0.7-  0.8+    071011 G96  0.5-  0.2-
071011 G96  0.0   0.1-    071011 651  0.2-  0.6+    071012 G96  0.2+  0.0
071011 G96  0.2-  0.1-    071011 649  0.1-  0.2-    071012 G96  0.2-  0.0
071011 G96  0.0   0.2-    071011 649  0.3+  0.0     071012 G96  0.1-  0.0
071011 G96  0.1+  0.0     071011 651  1.3+  0.2+    071012 G96  0.1+  0.0
071011 G96  0.1+  0.2-    071011 G96  0.0   0.3-
071011 G96  0.1-  0.1+    071011 G96  0.1+  0.1-

Ephemeris:
2007 TX24                a,e,i = 2.28, 0.53, 8                   q = 1.0740
Date    TT    R. A. (2000) Decl.     Delta      r     Elong.  Phase     V
2007 10 07    00 28.03   +18 12.7    0.0774   1.075   166.1    12.9    20.3
2007 10 09    00 52.61   +15 57.2    0.0783   1.076   170.0     9.3    20.1
2007 10 11    01 15.78   +13 35.0    0.0803   1.078   172.5     6.9    20.1
2007 10 13    01 37.10   +11 12.7    0.0832   1.081   172.5     6.9    20.2
2007 10 15    01 56.35   +08 56.3    0.0872   1.083   170.5     8.7    20.4
2007 10 17    02 13.46   +06 49.5    0.0919   1.087   168.0    11.0    20.6
2007 10 19    02 28.51   +04 54.7    0.0974   1.091   165.4    13.3    20.8
2007 10 21    02 41.66   +03 12.7    0.104    1.095   163.2    15.2    21.0
2007 10 23    02 53.08   +01 43.3    0.110    1.100   161.3    16.8    21.2
2007 10 25    03 02.98   +00 25.9    0.118    1.106   159.8    18.1    21.4
2007 10 27    03 11.53   -00 40.7    0.125    1.111   158.6    19.1    21.6
2007 10 29    03 18.92   -01 37.4    0.133    1.118   157.6    19.8    21.8
2007 10 31    03 25.28   -02 25.3    0.142    1.125   156.8    20.3    21.9
2007 11 02    03 30.76   -03 05.3    0.150    1.132   156.3    20.6    22.1
2007 11 04    03 35.47   -03 38.3    0.159    1.139   155.9    20.8    22.2
2007 11 06    03 39.52   -04 05.0    0.169    1.147   155.7    20.9    22.4

Timothy B. Spahr             (C) Copyright 2007 MPC           M.P.E.C. 2007-T89

Read MPEC 2007-T88 Read MPEC 2007-T90


Our Web policy. Index to the CBAT/MPC/ICQ pages.


Valid HTML 4.01!